Simultaneous Nadir Overpasses (SNOs) Predictions

Prediction of SNOs between LANDSAT-8 and METOP-A Satellite Orbit:

Table of predicted SNOs for the next 14.0 days since TLE Epoch: 10/30/2021
Index Date (LANDSAT-8) Time (LANDSAT-8) Lat,Lon (LANDSAT-8) SZA (LANDSAT-8 ) Date (METOP-A) Time (METOP-A) Lat,Lon (METOP-A) SZA (METOP-A ) Distance(km) Time Diff (sec)
1 11/01/2021 20:05:42 -81.31, 101.61 81.33 11/01/2021 20:05:30 -81.30, 101.54 81.35 1.25 12
2 11/01/2021 20:55:09 81.29, -91.01 98.64 11/01/2021 20:56:11 81.31, -91.14 98.67 2.67 62
3 11/04/2021 15:39:56 -81.30, 167.92 80.48 11/04/2021 15:39:48 -81.30, 167.98 80.48 1.06 8
4 11/04/2021 16:29:23 81.28, -24.73 99.49 11/04/2021 16:30:29 81.30, -24.71 99.54 2.02 66
5 11/07/2021 11:14:10 -81.31,-125.48 79.63 11/07/2021 11:14:07 -81.30,-125.61 79.65 2.56 3
6 11/07/2021 12:03:37 81.29, 41.84 100.34 11/07/2021 12:04:48 81.30, 41.68 100.36 2.90 71
7 11/10/2021 05:58:58 81.29, 133.04 101.12 11/10/2021 05:57:46 81.31, 133.19 101.12 2.93 72
8 11/10/2021 06:48:25 -81.29, -59.33 78.87 11/10/2021 06:48:26 -81.30, -59.24 78.86 1.58 1
9 11/10/2021 07:37:51 81.29, 108.34 101.14 11/10/2021 07:38:57 81.13, 111.78 101.45 61.23 66
10 11/13/2021 01:33:11 81.29,-160.54 101.87 11/13/2021 01:32:04 81.31,-160.49 101.86 2.00 67



Historial Predications of SNOs between LANDSAT-8 and METOP-A
